Theta_e
316 314 315 317 319 320 322 323 325 326 326 326 326 323 320 319 321 328 332 335 337 339 337 338 342 343 342 343 347 344 352 352 349 346 347 351 352 351 348 348 348 347 350 350 347
317 317 315 315 317 319 321 323 324 325 326 326 325 322 319 318 319 327 332 334 335 340 337 339 340 341 342 343 346 348 349 347 346 345 344 349 347 348 349 349 348 348 349 348 345
318 318 317 316 315 317 319 321 323 324 325 325 324 321 320 319 324 333 333 334 341 340 337 338 339 340 341 342 344 346 350 345 345 346 344 344 344 350 350 352 348 348 348 346 345
318 318 318 318 317 316 317 319 321 323 324 323 322 321 320 319 334 332 333 335 341 340 336 340 340 341 343 342 343 345 345 345 346 346 346 345 346 350 348 349 349 347 347 346 346
318 318 318 318 319 318 316 317 319 322 323 322 321 320 320 328 328 331 332 337 341 338 339 340 339 341 344 343 343 345 345 345 345 347 348 347 345 349 348 348 348 347 347 346 346
318 318 318 318 318 319 319 317 317 319 321 321 320 320 321 329 330 329 333 332 334 334 338 338 338 339 341 342 343 342 344 345 347 347 350 349 348 348 347 348 347 347 347 347 346
318 318 318 318 318 319 319 319 317 318 319 319 319 319 323 325 326 327 331 333 335 334 335 337 337 338 340 342 342 342 348 348 348 338 343 349 350 349 347 346 347 347 346 346 346
318 318 317 318 318 318 319 319 319 318 318 318 318 318 325 325 324 325 329 333 334 332 334 335 335 338 339 342 343 348 348 349 343 344 339 343 352 349 347 346 346 346 346 346 345
317 317 317 317 318 318 319 320 319 318 318 318 319 324 325 325 324 323 327 332 336 336 337 337 336 338 340 342 345 346 351 349 346 345 338 340 348 349 349 347 345 345 345 345 346
315 316 317 317 318 318 319 320 319 319 318 318 318 325 327 325 324 323 329 332 336 337 338 338 339 339 341 343 352 351 347 346 349 347 349 350 354 350 350 349 347 346 346 346 346
313 315 316 316 318 318 319 320 322 322 325 323 324 323 325 324 324 327 330 332 334 335 338 338 340 340 343 344 344 345 346 348 345 349 348 352 353 351 349 349 350 347 347 346 347
312 313 314 316 318 318 320 322 326 326 327 326 323 325 324 324 324 323 326 332 335 336 337 338 340 341 341 342 344 343 344 346 345 341 341 345 348 346 349 348 349 349 348 347 348
313 312 313 315 318 319 320 324 325 325 326 325 326 323 324 324 324 325 326 331 336 338 337 338 340 340 341 343 345 344 344 343 342 342 341 342 346 345 345 346 348 348 348 348 348
315 313 313 316 323 327 326 325 324 324 326 328 327 325 323 324 324 324 326 330 334 337 338 339 340 342 341 341 343 342 342 342 343 343 344 340 344 347 343 347 349 348 347 347 347
316 314 313 315 323 325 327 324 325 325 333 328 327 325 324 324 326 324 325 327 332 336 337 339 341 341 342 342 340 341 340 341 341 342 343 343 345 350 345 347 349 348 348 347 346
316 314 314 317 318 324 326 326 324 327 329 328 326 326 324 325 325 326 325 327 330 334 337 337 338 340 341 342 341 341 341 338 338 339 345 344 345 346 347 345 342 342 348 349 348
315 315 315 316 327 326 325 326 327 327 328 331 329 327 325 325 325 327 326 326 328 331 334 336 337 339 341 340 342 340 342 342 340 345 349 344 344 345 343 345 344 346 345 348 349
319 318 317 318 323 326 326 328 329 328 329 331 329 327 325 326 325 327 327 326 327 329 333 336 336 337 339 340 340 342 341 342 351 353 350 346 348 346 343 341 342 342 343 346 348
323 322 322 323 320 325 327 329 329 332 328 331 330 328 327 326 326 326 327 327 327 327 330 333 335 335 337 340 338 341 341 342 345 341 344 345 343 341 344 344 344 345 347 347 350
324 329 330 328 323 325 329 329 329 330 331 330 329 328 328 327 326 327 327 328 328 328 329 331 332 334 335 338 338 337 338 342 347 350 347 347 347 347 351 349 346 348 350 352 356
324 331 330 327 324 326 330 330 330 330 328 329 329 330 328 328 327 327 327 329 329 329 329 329 331 333 335 339 337 338 337 338 341 349 344 344 344 347 345 340 342 348 351 353 354
329 334 330 326 326 326 329 329 329 330 327 328 329 329 328 329 328 327 328 329 329 329 328 329 331 334 337 337 338 337 336 335 339 339 338 338 348 345 343 341 343 349 350 352 353
330 332 328 326 328 327 328 329 330 330 328 328 328 328 329 329 328 328 328 330 329 329 328 329 331 334 338 338 336 334 335 337 337 338 342 339 348 343 340 347 350 350 352 353 353
330 335 328 326 326 329 331 329 329 329 328 328 329 329 329 329 330 330 328 330 329 329 328 331 331 335 337 340 335 335 335 338 338 340 340 342 346 343 345 349 352 352 352 353 353
329 336 331 334 327 328 330 331 330 329 328 326 328 329 330 330 330 332 334 331 330 328 328 330 332 333 334 336 336 337 336 334 335 336 338 341 338 344 340 342 353 352 352 353 353
331 333 334 336 332 328 325 329 330 331 329 330 328 330 330 331 331 332 332 333 332 330 330 330 334 333 336 336 336 336 336 336 337 336 336 338 342 341 337 338 346 350 351 351 352
324 326 331 333 335 333 331 329 330 331 331 330 330 328 331 331 331 334 337 336 333 331 330 330 332 335 337 335 336 336 335 334 333 336 336 338 344 346 346 344 350 350 348 349 349
Wind_Speed
5 6 7 9 9 8 9 9 8 8 10 11 13 15 16 17 15 12 13 5 8 10 10 8 13 13 12 13 15 27 4 3 7 8 8 14 13 12 7 9 10 6 18 27 29
7 6 7 9 10 10 10 10 9 10 11 11 13 13 14 16 14 16 12 12 14 12 10 13 16 10 16 9 11 6 3 11 12 12 8 17 10 11 9 6 9 20 23 28 28
7 7 7 8 10 11 12 11 11 11 11 12 12 12 12 14 12 16 15 12 11 10 12 11 16 17 18 11 14 7 2 8 14 17 12 9 2 17 16 2 12 21 25 27 27
8 8 8 8 9 11 12 12 12 12 12 12 12 12 11 11 4 6 8 9 11 10 12 15 19 21 14 3 9 7 9 9 13 8 17 10 4 20 4 11 18 20 24 26 25
9 9 9 9 9 10 11 12 13 12 11 11 11 11 10 9 15 4 7 10 11 10 11 18 16 11 8 6 10 13 4 13 9 17 11 12 7 13 6 8 16 18 21 23 23
10 9 10 10 10 10 10 11 12 12 11 11 11 11 10 16 6 3 6 8 10 13 14 16 16 9 8 8 8 8 34 8 8 32 18 10 4 10 12 11 17 18 19 22 21
10 10 10 10 10 10 10 10 10 11 11 10 9 10 12 20 6 7 10 11 11 12 14 11 7 13 16 3 8 16 23 20 23 39 10 3 3 11 12 14 16 18 19 20 20
10 10 11 10 10 10 11 9 9 9 9 9 9 10 12 12 13 16 14 14 14 14 13 12 12 15 17 4 14 8 13 8 9 5 3 12 6 6 12 16 16 17 20 21 21
11 10 11 11 11 11 10 8 7 8 7 7 7 9 19 7 15 19 17 17 15 16 15 13 14 17 20 13 5 11 7 9 13 12 9 12 7 18 18 16 16 18 18 18 20
12 11 11 11 11 10 9 6 6 6 7 7 10 9 23 14 13 15 17 16 17 17 18 16 17 14 4 3 5 13 3 7 11 13 19 22 20 20 22 19 18 19 21 18 20
12 12 11 11 10 10 6 5 5 6 15 17 12 16 2 8 4 12 16 16 15 16 16 19 13 16 9 5 20 22 19 17 26 27 16 19 7 24 26 19 19 19 21 21 19
13 12 12 11 10 9 8 7 10 10 13 25 24 21 19 7 9 16 17 19 20 17 16 17 17 6 8 8 18 18 16 19 18 5 6 6 12 18 17 18 21 20 21 21 20
14 12 11 11 10 9 9 13 11 9 9 20 28 27 18 13 13 13 23 23 18 19 20 20 19 12 16 12 22 23 13 8 6 6 9 4 4 13 2 13 17 18 20 21 21
15 13 10 8 4 3 11 8 9 7 7 14 22 22 25 17 19 20 22 23 20 21 21 20 6 20 7 9 18 7 9 7 12 7 8 3 4 3 9 22 21 20 19 18 20
17 13 10 7 6 3 2 2 4 4 6 14 17 9 19 25 3 23 20 25 22 22 15 19 17 22 12 16 9 7 13 14 12 15 12 9 5 7 2 15 24 25 23 17 18
18 14 9 8 11 9 2 4 2 6 12 9 11 11 16 20 23 17 20 20 26 22 20 23 24 11 12 21 5 9 15 14 16 14 6 11 14 4 9 17 31 42 35 22 21
19 15 10 12 6 2 6 6 6 10 6 10 15 13 18 18 20 19 17 17 18 18 20 20 21 16 19 10 17 6 19 14 6 3 8 16 15 10 13 20 26 22 16 22 25
19 12 11 13 10 6 6 8 9 14 19 5 5 15 16 17 19 19 14 16 21 21 15 16 17 20 10 19 9 12 14 9 6 7 4 19 7 10 1 10 11 9 6 3 22
14 7 8 6 16 9 12 11 10 13 8 4 8 11 15 16 14 20 17 17 19 22 21 15 18 15 18 22 15 17 12 13 8 4 8 3 8 25 14 11 11 11 9 6 7
10 7 9 9 12 11 10 17 20 18 7 5 12 10 12 16 17 19 16 17 18 22 23 21 16 17 20 22 19 15 15 2 4 7 8 6 13 9 7 21 30 10 11 8 11
7 7 14 11 11 13 11 17 19 12 5 9 15 16 13 12 17 16 14 12 15 16 20 19 19 18 18 17 18 15 13 6 13 19 7 5 5 13 16 19 26 11 14 12 12
8 8 11 15 11 15 13 20 24 6 11 9 11 15 10 13 14 16 17 15 15 14 16 17 14 14 15 16 23 21 14 17 12 12 10 9 2 8 10 19 28 17 17 17 16
7 9 10 16 9 11 18 21 23 6 15 10 10 12 15 15 5 13 16 11 11 8 13 13 16 14 5 16 11 11 18 15 14 12 14 12 3 9 15 19 16 16 17 16 17
8 4 9 18 21 17 16 19 19 10 16 14 11 12 9 12 11 5 14 7 10 10 16 12 17 16 9 10 10 19 20 13 19 12 5 10 11 8 13 8 8 13 15 16 16
6 4 16 9 14 16 18 17 14 15 18 16 12 12 10 10 14 7 10 10 11 5 7 11 17 19 14 9 18 9 15 17 11 16 16 12 7 22 14 1 12 17 16 15 16
6 11 3 31 14 18 15 14 15 10 12 12 13 14 14 15 14 12 13 12 12 11 12 15 15 17 18 16 21 9 8 11 13 15 14 5 8 17 33 32 29 18 18 17 16
14 12 11 16 15 8 10 14 13 17 16 15 12 14 17 15 21 13 12 19 12 14 15 16 13 15 16 17 12 17 13 15 12 16 8 4 13 21 24 30 23 23 20 18 17
Wind_Direction
324 290 270 268 267 271 275 282 286 293 302 307 312 316 313 305 289 281 269 269 259 267 283 296 253 260 259 252 89 53 331 109 72 72 105 137 107 116 108 112 50 85 138 154 152
334 314 289 274 270 271 273 278 282 288 294 303 312 313 314 308 293 269 261 260 256 255 275 287 298 281 261 218 124 134 189 35 66 82 97 160 110 131 105 89 113 112 127 146 153
335 324 308 291 278 272 273 273 278 286 294 303 310 308 312 313 303 243 234 251 228 246 271 279 282 268 249 238 141 155 147 92 58 53 67 103 131 108 123 140 137 135 146 154 159
334 328 316 305 293 278 272 273 276 282 291 300 305 303 303 301 272 179 204 235 222 249 268 273 263 261 257 78 106 39 106 100 95 121 77 84 160 146 94 79 143 146 155 160 165
332 327 320 312 304 291 279 271 272 274 282 293 298 301 306 260 253 215 250 219 225 252 261 271 281 297 33 246 194 173 122 106 135 97 108 66 54 91 102 105 122 147 160 166 171
326 325 322 317 311 301 290 276 267 269 274 284 292 293 297 271 231 249 200 230 236 242 259 262 292 9 274 242 83 38 279 138 359 46 39 89 150 109 124 148 135 149 166 169 179
324 322 321 316 312 304 296 281 264 261 266 277 283 289 276 246 278 244 238 234 236 240 268 276 292 291 282 236 164 202 40 360 80 107 264 130 21 102 142 133 147 161 168 173 183
318 317 317 315 313 307 300 285 266 256 260 270 276 283 264 240 261 251 239 239 239 244 252 284 288 285 285 331 127 162 70 42 251 116 46 92 251 143 154 156 169 166 172 172 181
317 317 313 313 313 310 303 289 268 257 255 258 270 266 266 266 238 236 231 236 236 235 248 264 277 271 266 223 219 76 112 163 290 293 140 100 270 243 169 169 177 172 172 179 178
320 315 310 310 310 310 306 288 265 253 247 246 245 275 248 242 245 222 218 229 242 231 237 245 251 254 229 320 100 311 200 208 160 257 208 113 268 171 170 176 176 188 177 189 180
324 315 310 305 306 307 296 263 260 237 212 216 197 213 139 219 235 208 210 218 231 245 232 227 242 245 122 82 149 204 235 243 306 200 204 185 202 172 161 180 179 190 185 189 194
326 317 309 303 304 296 273 233 343 317 303 235 245 239 251 242 262 224 218 223 216 233 234 237 227 174 319 141 177 201 273 207 248 41 173 237 189 317 153 180 184 194 188 188 197
330 320 308 304 307 290 262 246 308 314 277 268 223 228 231 225 245 233 203 214 220 226 233 238 232 215 197 138 254 206 174 0 290 284 285 46 63 346 139 308 200 198 196 192 192
330 319 309 303 313 291 262 290 268 299 278 240 206 221 220 220 239 239 208 212 226 222 236 247 150 294 238 229 231 306 21 195 246 248 229 47 290 304 286 23 292 204 198 198 193
327 317 304 276 261 248 331 275 264 259 275 141 176 221 203 202 278 207 216 212 227 230 227 240 205 216 239 268 95 314 254 243 260 280 142 87 254 289 352 79 302 291 188 198 195
323 310 290 276 252 222 287 272 257 236 242 157 142 191 197 205 239 190 214 216 225 241 242 255 261 195 243 265 83 355 312 230 248 253 210 193 221 237 213 165 186 242 254 188 190
320 302 266 235 193 234 248 237 219 241 196 158 178 192 205 194 219 233 189 208 219 224 237 241 255 223 220 240 104 145 257 269 249 328 357 338 314 188 217 175 194 219 182 184 185
318 292 258 232 218 270 220 225 246 222 255 100 197 175 202 206 206 215 198 216 216 230 226 224 230 245 218 249 245 239 260 312 42 23 313 307 0 324 203 103 106 120 118 212 188
320 289 263 224 215 189 224 223 226 257 275 139 204 220 200 203 200 223 206 213 209 226 241 241 222 231 212 245 232 214 249 90 132 246 223 205 278 240 206 141 131 119 129 157 71
317 240 253 193 198 186 230 243 247 312 339 5 283 212 225 207 194 211 206 221 225 203 233 251 271 232 213 228 229 233 238 190 40 336 264 207 233 177 80 62 323 128 113 101 80
292 239 156 167 169 207 231 239 240 249 260 263 275 296 237 203 194 226 220 215 223 230 208 241 253 255 223 197 240 218 230 203 231 185 246 215 241 95 131 137 227 149 133 130 114
278 262 171 165 192 221 233 246 267 289 189 250 284 298 299 264 196 214 238 240 190 233 218 230 252 247 240 197 213 240 228 226 246 244 257 300 131 21 17 277 219 136 140 135 125
262 222 183 185 221 221 227 256 261 231 256 220 238 256 280 288 269 204 243 208 217 219 243 212 239 259 135 240 198 236 241 252 272 289 286 253 67 342 11 335 99 132 135 131 126
275 210 161 206 230 273 281 220 245 226 271 276 262 274 265 275 269 224 240 215 199 210 243 271 242 245 220 316 232 207 226 227 248 248 222 102 133 162 192 210 174 157 146 141 139
252 285 0 271 223 224 263 286 218 241 206 235 258 261 265 246 261 222 278 228 162 177 251 238 240 256 276 167 324 224 220 232 260 258 286 140 273 189 184 176 181 173 153 157 148
289 2 211 289 270 201 229 255 280 266 241 204 239 239 234 264 257 231 211 257 210 189 219 223 249 256 270 194 224 208 216 227 219 271 284 153 74 125 129 184 245 175 166 167 157
331 330 290 282 282 259 245 220 236 248 254 262 242 226 253 230 258 306 328 294 235 185 205 225 235 239 254 250 252 257 225 237 245 216 257 284 95 133 163 194 182 175 170 162 158